Zurück zum Katalog

QIANFAN-69

AktivKommunikationPO
NORAD 62799·PAYLOAD·🇨🇳 China

Gestartet Jan 23, 2025 von Taiyuan Satellite Launch Center

Loading…

Nächste Überflüge (nächste 24 Stunden)

TLE

AktuellSource: Space-Track

Epoche: Sep 14, 2026, 13:58 UTC

1 62799U 25016Q   26257.58199395  .00000027  00000-0  23081-4 0  9995
2 62799  88.9644  74.2640 0013946 268.0607  91.8947 13.51024044 84520

Verfolge QIANFAN-69 in Echtzeit mit AllMySat

Download on the App Store